Temp
70 71 70 70 69 69 67 66 67 67 64 63 60 60 60 61 62 63 64 62 61 59 57 56 55 55 56 58 60 59 57 53 52 52 52 53 52 52 50 51 52 53
69 70 70 70 68 67 67 67 67 67 64 62 61 61 61 60 60 62 60 59 56 55 56 56 56 57 58 58 57 55 52 52 51 52 52 51 51 50 49 49 50 50
67 68 68 68 67 66 66 67 67 66 64 62 61 60 58 58 57 58 59 56 55 54 54 54 55 57 57 56 53 52 51 52 51 51 50 49 49 49 48 49 49 48
66 67 67 67 67 66 65 65 65 64 62 60 59 58 56 56 56 56 56 53 55 52 51 51 51 52 53 52 52 52 52 51 51 50 49 49 48 48 48 48 47 47
64 64 66 66 67 66 65 64 62 62 60 59 57 55 56 54 53 51 51 51 52 49 49 48 49 50 52 53 52 50 49 48 48 49 48 47 48 47 46 47 46 45
63 63 63 64 64 64 63 62 62 61 59 57 55 55 55 54 52 50 48 47 46 46 45 46 47 49 51 49 49 48 47 47 47 47 46 45 44 44 44 46 45 44
60 61 61 63 63 63 62 62 61 59 58 56 55 54 54 53 53 52 50 46 45 45 44 44 47 47 47 47 46 45 46 45 45 45 44 44 43 42 43 44 45 44
59 59 60 61 61 61 61 60 58 57 56 55 53 52 52 52 51 50 48 46 45 45 43 45 47 46 45 45 45 44 43 43 43 45 45 44 44 43 43 43 43 42
57 57 57 57 57 56 57 55 54 53 52 51 51 48 48 49 48 46 45 44 43 43 45 45 45 44 45 45 44 44 43 43 44 45 45 45 44 43 43 42 42 41
54 54 54 54 54 54 53 52 51 49 49 50 48 48 46 43 43 45 44 45 44 44 45 44 44 44 44 45 44 44 44 44 45 45 45 45 44 43 42 42 41 40
52 51 52 52 52 51 50 48 47 46 46 46 45 45 45 43 41 43 45 46 44 44 44 44 44 44 44 44 44 45 45 44 44 44 44 43 42 41 39 41 41 40
49 49 50 50 48 47 45 44 43 43 43 43 45 44 42 43 43 44 45 45 45 45 45 45 45 45 45 45 44 44 44 44 43 42 41 41 40 40 40 40 40 39
47 48 48 47 45 44 42 42 42 42 42 43 44 44 43 42 44 45 46 46 45 45 45 44 43 44 43 43 43 43 43 42 41 40 39 39 39 39 39 39 39 38
45 43 43 43 42 41 42 41 41 41 42 41 42 43 43 43 45 44 44 45 45 45 44 44 43 43 43 43 43 43 42 41 40 39 38 37 37 38 37 37 37 37
42 41 41 41 40 40 39 40 40 40 40 41 42 43 43 44 44 42 42 43 44 43 43 43 42 41 41 42 41 41 40 39 39 38 37 37 36 36 36 36 36 36
40 39 39 39 40 40 39 39 38 39 39 39 41 42 42 41 41 42 42 42 41 41 41 40 40 40 37 38 39 40 39 38 38 38 37 37 36 35 35 35 35 34
39 38 38 39 39 39 38 38 37 37 38 38 38 39 39 40 40 41 42 41 41 40 40 39 38 37 36 38 38 38 38 39 38 37 37 37 36 35 34 34 34 33
38 38 38 38 37 37 37 38 37 36 36 38 38 37 37 40 40 41 41 41 40 40 40 39 38 36 37 38 38 37 37 39 38 37 37 37 36 36 35 34 33 33
37 38 37 37 37 36 36 36 36 36 35 36 36 37 38 38 40 39 40 40 40 39 38 38 37 36 37 37 37 37 37 37 38 37 37 36 36 35 35 34 34 33
38 37 36 36 36 36 36 36 35 36 36 37 36 37 38 38 37 38 38 39 39 39 39 38 37 36 37 37 36 36 36 37 37 37 36 35 35 35 34 34 34 33
37 37 37 36 35 36 35 36 36 35 35 35 36 36 36 35 36 35 37 36 38 38 38 37 37 36 36 36 36 36 35 36 36 35 35 34 34 34 34 33 33 33
38 38 37 37 36 35 35 35 35 35 35 36 36 37 36 36 36 35 35 35 36 36 37 36 36 36 36 36 36 36 35 34 35 34 34 33 32 32 33 32 32 31
39 38 37 37 36 35 35 35 35 35 35 36 35 35 35 35 34 34 35 35 34 35 35 35 35 35 35 35 35 35 34 33 32 32 31 32 32 32 32 31 31 31
39 38 36 35 35 35 35 36 36 36 35 36 35 34 33 33 34 34 34 34 34 35 35 34 33 34 35 35 35 34 33 32 32 31 30 30 31 31 31 30 30 28
38 37 36 35 35 35 35 35 35 35 35 35 35 34 33 33 33 33 33 33 34 34 34 34 33 33 34 34 34 33 33 32 31 30 28 28 28 28 30 30 29 28
37 36 35 35 35 35 35 35 35 34 33 34 34 34 32 32 32 32 30 31 32 32 33 34 32 33 33 33 33 33 32 31 31 30 28 27 28 27 26 27 28 28
MSLP
1016.25 1016.37 1016.65 1016.89 1017.17 1017.37 1017.81 1018.21 1018.33 1018.65 1019.09 1019.49 1019.85 1020.17 1020.37 1020.57 1020.93 1021.13 1021.21 1021.57 1021.73 1022.05 1022.57 1022.93 1023.29 1023.61 1023.77 1023.81 1023.77 1023.93 1024.37 1024.89 1025.17 1025.41 1025.53 1025.65 1025.89 1026.09 1026.25 1026.25 1026.13 1026.01
1015.81 1015.93 1016.21 1016.45 1016.77 1017.13 1017.37 1017.65 1017.89 1018.17 1018.65 1019.09 1019.49 1019.85 1020.01 1020.25 1020.77 1020.97 1021.37 1021.69 1022.05 1022.25 1022.57 1022.85 1023.09 1023.33 1023.57 1023.69 1023.93 1024.25 1024.73 1025.01 1025.33 1025.45 1025.61 1025.85 1026.01 1026.25 1026.41 1026.45 1026.37 1026.29
1015.49 1015.69 1015.89 1016.09 1016.29 1016.69 1017.01 1017.25 1017.53 1017.85 1018.21 1018.69 1019.13 1019.53 1019.93 1020.21 1020.69 1021.09 1021.29 1021.65 1021.97 1022.33 1022.57 1022.81 1022.97 1023.25 1023.53 1023.77 1024.13 1024.53 1024.81 1025.05 1025.25 1025.49 1025.69 1026.01 1026.21 1026.37 1026.53 1026.49 1026.45 1026.53
1015.05 1015.25 1015.45 1015.65 1015.89 1016.37 1016.73 1017.09 1017.33 1017.61 1018.05 1018.61 1018.97 1019.45 1019.85 1020.25 1020.61 1021.05 1021.33 1021.81 1022.01 1022.37 1022.49 1022.85 1023.17 1023.45 1023.73 1024.01 1024.25 1024.49 1024.85 1025.05 1025.21 1025.45 1025.77 1026.09 1026.33 1026.49 1026.57 1026.49 1026.61 1026.69
1014.65 1014.93 1015.13 1015.37 1015.65 1016.05 1016.41 1016.77 1017.09 1017.41 1017.89 1018.29 1018.89 1019.45 1019.81 1020.25 1020.57 1021.13 1021.53 1021.81 1022.01 1022.29 1022.45 1022.97 1023.29 1023.61 1023.77 1023.89 1024.25 1024.57 1024.89 1025.09 1025.41 1025.57 1025.81 1026.13 1026.37 1026.53 1026.57 1026.57 1026.69 1026.85
1014.45 1014.69 1014.89 1015.17 1015.45 1015.77 1016.13 1016.41 1016.73 1017.21 1017.69 1018.25 1018.73 1019.21 1019.53 1019.81 1020.25 1020.97 1021.41 1021.77 1022.13 1022.29 1022.49 1022.97 1023.41 1023.69 1023.85 1024.21 1024.41 1024.53 1024.73 1025.05 1025.45 1025.69 1025.93 1026.29 1026.57 1026.69 1026.69 1026.61 1026.73 1026.97
1014.33 1014.57 1014.81 1015.01 1015.29 1015.57 1015.85 1016.13 1016.53 1017.01 1017.37 1017.89 1018.53 1018.97 1019.25 1019.57 1020.01 1020.61 1021.13 1021.57 1022.01 1022.33 1022.45 1022.93 1023.37 1023.69 1024.01 1024.21 1024.37 1024.57 1024.81 1025.09 1025.53 1025.81 1026.09 1026.33 1026.53 1026.77 1026.77 1026.69 1026.81 1027.09
1014.29 1014.49 1014.73 1014.93 1015.17 1015.45 1015.65 1015.97 1016.41 1016.81 1017.17 1017.81 1018.25 1018.81 1019.17 1019.41 1019.85 1020.45 1021.01 1021.41 1021.77 1022.29 1022.53 1022.97 1023.25 1023.61 1023.89 1024.09 1024.21 1024.49 1024.93 1025.29 1025.53 1025.73 1025.93 1026.17 1026.33 1026.53 1026.69 1026.81 1026.97 1027.21
1014.17 1014.37 1014.61 1014.81 1015.05 1015.37 1015.61 1016.05 1016.41 1016.77 1017.21 1017.69 1018.17 1018.77 1019.21 1019.49 1019.93 1020.49 1020.93 1021.33 1021.69 1021.97 1022.41 1022.93 1023.21 1023.53 1023.85 1023.89 1024.05 1024.33 1024.73 1025.13 1025.33 1025.45 1025.57 1025.73 1026.01 1026.29 1026.57 1026.85 1027.09 1027.17
1014.09 1014.29 1014.53 1014.73 1014.97 1015.21 1015.53 1015.97 1016.37 1016.85 1017.25 1017.61 1018.13 1018.57 1019.09 1019.81 1020.17 1020.37 1020.69 1021.13 1021.45 1021.89 1022.41 1022.81 1023.09 1023.45 1023.65 1023.73 1023.89 1024.13 1024.45 1024.85 1025.13 1025.33 1025.41 1025.53 1025.77 1026.17 1026.57 1026.81 1026.93 1027.13
1014.17 1014.33 1014.49 1014.65 1014.85 1015.25 1015.57 1016.05 1016.45 1016.89 1017.29 1017.65 1018.25 1018.65 1019.09 1019.65 1020.25 1020.57 1020.53 1020.81 1021.21 1021.65 1022.25 1022.61 1022.85 1023.21 1023.33 1023.57 1023.89 1024.13 1024.41 1024.81 1025.09 1025.29 1025.49 1025.73 1025.93 1026.29 1026.69 1026.77 1026.85 1027.05
1014.33 1014.49 1014.57 1014.69 1015.01 1015.37 1015.81 1016.25 1016.65 1017.01 1017.37 1017.81 1017.93 1018.45 1019.17 1019.49 1019.81 1020.41 1020.33 1020.61 1020.93 1021.41 1021.97 1022.37 1022.77 1023.01 1023.17 1023.45 1023.85 1024.25 1024.61 1024.93 1025.17 1025.41 1025.69 1025.93 1026.25 1026.61 1026.81 1026.81 1026.97 1027.29
1014.45 1014.53 1014.65 1014.89 1015.21 1015.61 1016.09 1016.49 1016.77 1017.13 1017.53 1017.73 1017.97 1018.01 1018.85 1019.61 1019.89 1020.09 1020.37 1020.45 1020.85 1021.41 1021.89 1022.29 1022.73 1022.97 1023.17 1023.53 1023.93 1024.29 1024.61 1024.93 1025.25 1025.57 1025.81 1026.13 1026.53 1026.77 1026.89 1027.05 1027.25 1027.49
1014.65 1014.81 1015.01 1015.25 1015.61 1015.97 1016.21 1016.57 1016.89 1017.25 1017.61 1017.89 1018.09 1018.09 1018.57 1019.17 1019.57 1020.01 1020.41 1020.53 1020.97 1021.45 1021.93 1022.25 1022.57 1022.81 1023.13 1023.53 1023.89 1024.25 1024.61 1024.93 1025.17 1025.49 1025.89 1026.37 1026.73 1026.89 1027.05 1027.29 1027.49 1027.69
1015.05 1015.29 1015.45 1015.69 1015.93 1016.25 1016.49 1016.77 1017.05 1017.33 1017.65 1018.01 1018.13 1018.25 1018.57 1018.97 1019.57 1019.89 1020.21 1020.77 1021.29 1021.69 1022.05 1022.37 1022.53 1022.73 1023.01 1023.37 1023.81 1024.29 1024.53 1024.85 1025.13 1025.45 1025.85 1026.33 1026.73 1026.97 1027.25 1027.49 1027.65 1027.85
1015.37 1015.57 1015.81 1016.05 1016.21 1016.45 1016.69 1016.93 1017.21 1017.49 1017.77 1018.09 1018.33 1018.53 1018.81 1019.25 1019.77 1019.97 1020.17 1020.73 1021.37 1021.93 1022.21 1022.49 1022.65 1022.89 1023.25 1023.49 1023.61 1023.89 1024.37 1024.69 1025.05 1025.41 1025.85 1026.21 1026.53 1026.97 1027.33 1027.57 1027.81 1028.01
1015.65 1015.85 1016.05 1016.17 1016.41 1016.65 1016.97 1017.01 1017.37 1017.65 1017.89 1018.21 1018.61 1018.81 1018.97 1019.53 1019.77 1020.13 1020.57 1020.97 1021.33 1021.77 1022.25 1022.57 1022.89 1023.25 1023.53 1023.69 1023.85 1023.97 1024.13 1024.49 1024.85 1025.41 1025.85 1026.09 1026.37 1026.73 1027.17 1027.61 1027.89 1028.17
1015.89 1016.09 1016.21 1016.41 1016.69 1016.97 1017.21 1017.17 1017.45 1017.81 1018.05 1018.29 1018.69 1018.93 1019.25 1019.49 1019.85 1020.13 1020.53 1020.97 1021.37 1021.85 1022.21 1022.57 1023.01 1023.45 1023.61 1023.81 1023.97 1024.09 1024.17 1024.37 1024.81 1025.25 1025.69 1025.97 1026.29 1026.65 1027.05 1027.41 1027.77 1028.01
1016.13 1016.25 1016.41 1016.73 1016.93 1017.17 1017.45 1017.49 1017.61 1017.93 1018.25 1018.53 1018.65 1018.73 1019.13 1019.49 1019.85 1020.25 1020.65 1021.01 1021.33 1021.77 1022.25 1022.69 1023.09 1023.49 1023.57 1023.81 1023.97 1024.17 1024.33 1024.45 1024.81 1025.17 1025.45 1025.89 1026.25 1026.61 1026.93 1027.25 1027.57 1027.85
1016.09 1016.37 1016.57 1016.77 1017.09 1017.37 1017.57 1017.69 1017.85 1018.01 1018.21 1018.37 1018.69 1019.09 1019.29 1019.53 1019.89 1020.21 1020.61 1020.93 1021.29 1021.69 1022.17 1022.65 1023.05 1023.37 1023.57 1023.81 1024.05 1024.29 1024.49 1024.57 1024.89 1025.21 1025.53 1025.89 1026.25 1026.57 1026.89 1027.17 1027.41 1027.61
1016.01 1016.17 1016.45 1016.89 1017.17 1017.37 1017.53 1017.69 1017.81 1018.05 1018.29 1018.49 1018.73 1018.93 1019.17 1019.49 1019.85 1020.25 1020.61 1020.97 1021.37 1021.73 1022.13 1022.65 1023.05 1023.29 1023.57 1023.85 1024.13 1024.41 1024.53 1024.69 1025.05 1025.37 1025.65 1026.05 1026.41 1026.69 1026.97 1027.25 1027.41 1027.53
1015.77 1016.01 1016.29 1016.61 1017.05 1017.33 1017.41 1017.57 1017.81 1018.01 1018.29 1018.65 1018.85 1019.17 1019.45 1019.73 1020.13 1020.33 1020.69 1021.09 1021.49 1021.81 1022.21 1022.69 1023.13 1023.37 1023.61 1023.93 1024.21 1024.37 1024.53 1024.81 1025.13 1025.37 1025.73 1026.17 1026.57 1026.89 1027.13 1027.37 1027.53 1027.65
1015.49 1015.69 1016.01 1016.37 1016.73 1017.01 1017.17 1017.37 1017.69 1018.13 1018.41 1018.53 1018.85 1019.21 1019.53 1019.89 1020.13 1020.53 1020.93 1021.25 1021.61 1021.89 1022.13 1022.65 1023.13 1023.49 1023.73 1024.01 1024.17 1024.29 1024.45 1024.77 1025.09 1025.41 1025.85 1026.25 1026.57 1026.93 1027.17 1027.41 1027.53 1027.61
1015.05 1015.29 1015.69 1016.13 1016.53 1016.65 1016.81 1017.17 1017.45 1017.73 1018.13 1018.37 1018.57 1019.09 1019.57 1019.89 1020.29 1020.81 1021.25 1021.45 1021.57 1021.77 1021.97 1022.45 1023.05 1023.45 1023.77 1024.01 1024.09 1024.21 1024.37 1024.65 1024.97 1025.33 1025.89 1026.29 1026.65 1026.97 1027.17 1027.33 1027.53 1027.69
1014.93 1015.21 1015.57 1015.97 1016.29 1016.53 1016.77 1017.09 1017.45 1017.77 1018.17 1018.57 1018.93 1019.17 1019.65 1020.13 1020.53 1020.93 1021.37 1021.73 1021.89 1021.97 1022.25 1022.57 1023.05 1023.53 1023.85 1023.97 1024.05 1024.21 1024.45 1024.57 1024.85 1025.33 1025.89 1026.33 1026.61 1026.89 1027.09 1027.21 1027.49 1027.61
1014.89 1015.21 1015.57 1015.89 1016.21 1016.53 1016.93 1017.25 1017.53 1018.01 1018.45 1018.65 1019.05 1019.37 1019.85 1020.33 1020.73 1021.09 1021.41 1021.81 1022.13 1022.29 1022.49 1022.69 1023.09 1023.49 1023.73 1023.89 1024.01 1024.25 1024.41 1024.49 1024.77 1025.13 1025.69 1026.13 1026.37 1026.61 1026.97 1027.17 1027.29 1027.37
Wind_Speed
17 16 16 15 14 13 13 13 12 13 12 11 10 9 10 10 10 11 9 6 5 7 8 9 8 7 6 7 7 7 6 7 5 5 6 6 6 7 5 6 5 4
19 17 14 14 12 11 12 13 13 13 12 11 11 10 8 10 11 11 11 9 6 7 9 8 8 8 8 7 7 7 7 7 7 6 6 7 6 6 6 6 6 5
17 16 17 16 14 14 14 13 13 12 12 11 10 9 8 8 11 10 10 7 7 8 9 9 9 8 8 8 8 7 7 8 7 6 6 7 5 5 5 5 5 5
17 17 16 17 15 13 13 12 12 9 8 8 9 8 8 9 8 10 10 10 9 9 8 8 9 8 8 8 8 8 8 6 6 7 7 5 5 5 5 4 5 5
16 15 14 14 14 13 12 13 12 11 10 11 9 8 10 11 9 8 9 9 9 8 9 9 9 8 9 9 8 7 7 7 7 6 6 6 5 5 4 5 6 6
13 13 12 13 13 13 12 12 13 12 12 10 11 9 9 9 11 10 10 9 6 7 9 9 9 9 9 7 7 7 7 7 6 7 6 6 5 4 3 5 6 6
11 10 11 11 12 12 12 12 12 10 11 9 8 8 9 8 9 10 9 10 10 8 9 9 10 9 7 7 6 8 6 7 7 7 7 6 6 6 4 5 5 6
10 9 9 9 11 11 11 11 10 11 10 10 12 11 11 10 8 7 9 11 11 11 9 10 8 8 8 7 8 8 8 6 7 8 7 7 7 7 6 4 5 6
9 9 9 10 11 9 10 10 10 10 10 11 10 11 9 10 12 11 11 10 9 10 10 8 8 9 8 8 8 9 10 8 7 8 8 9 8 7 7 6 6 6
9 8 10 10 11 9 10 10 9 9 10 11 11 12 11 8 7 10 11 12 9 9 8 8 9 8 8 8 9 9 10 9 8 7 6 7 8 8 7 6 6 6
8 8 10 10 10 8 10 9 9 9 9 10 10 10 10 10 8 7 11 11 9 10 9 9 9 9 9 8 7 7 8 8 7 7 7 7 7 7 6 6 6 6
8 8 9 9 9 8 9 9 9 8 9 9 12 13 10 10 12 9 9 9 8 10 10 9 8 8 8 9 8 8 7 7 7 7 7 7 7 6 5 5 6 6
7 8 7 8 8 8 7 8 9 9 9 10 9 13 13 10 9 10 6 8 9 9 9 10 9 8 9 9 8 8 8 8 8 8 8 7 6 6 6 6 6 5
6 4 5 6 6 7 8 8 8 8 8 7 8 12 13 12 13 11 8 7 9 8 8 8 8 8 8 8 8 8 8 8 8 9 8 8 7 6 6 6 6 5
5 4 4 6 7 7 7 8 8 8 8 7 7 8 9 11 10 8 10 9 8 8 9 7 7 7 6 8 9 8 7 8 8 9 9 9 8 7 6 6 6 5
5 5 6 6 7 8 8 9 8 9 9 8 8 10 10 8 6 6 8 11 10 8 7 5 5 4 9 12 9 9 9 7 7 8 8 8 9 8 7 6 6 5
6 6 6 7 7 7 7 9 9 8 9 9 9 10 11 10 8 9 8 8 10 9 9 6 5 5 13 12 11 11 9 9 9 8 8 8 8 8 8 7 6 6
5 7 6 7 7 7 7 9 10 9 9 11 10 11 7 7 9 9 9 9 7 8 8 7 6 10 14 14 13 12 9 8 8 8 7 7 7 7 7 7 7 6
6 7 7 7 7 8 7 8 10 10 10 10 10 9 8 9 8 9 8 8 8 9 8 7 7 13 14 14 14 13 12 9 7 7 7 7 7 7 7 7 6 6
8 7 7 8 8 8 8 9 9 11 9 9 8 7 7 8 6 8 8 9 8 9 8 8 8 13 15 15 14 14 13 9 7 8 7 7 7 6 6 7 7 7
8 9 9 8 8 9 9 9 10 9 8 6 7 8 8 8 8 7 7 6 7 7 8 8 7 15 15 15 15 14 13 10 7 7 7 7 6 6 6 6 6 5
9 9 9 9 10 9 9 9 9 10 10 6 6 4 4 4 4 4 8 8 5 6 8 8 9 15 15 15 16 16 14 7 7 7 7 7 6 6 5 5 5 5
10 10 10 11 10 11 10 10 11 10 6 7 7 6 7 6 6 6 5 8 10 7 7 8 9 13 15 16 16 17 10 6 6 6 6 7 6 6 5 5 5 6
10 10 10 10 11 11 11 9 7 5 6 6 8 11 8 7 7 7 5 5 8 7 7 9 9 12 16 16 16 15 9 7 6 7 6 6 6 6 5 5 5 7
8 8 9 10 10 9 9 10 10 8 5 5 4 4 7 6 7 7 6 5 5 7 9 8 9 12 16 15 16 14 9 6 6 6 7 6 6 6 5 5 6 6
7 8 8 9 9 8 7 6 5 6 7 7 6 5 7 6 6 6 8 6 6 6 7 7 9 9 12 16 15 14 11 6 6 7 7 8 6 6 6 5 5 5
Wind_Direction
213 214 214 214 212 211 202 199 201 200 194 189 184 183 178 172 174 179 178 171 139 128 145 148 144 144 145 153 160 155 147 134 127 128 139 151 150 153 149 157 155 137
212 212 212 211 209 205 203 199 200 198 192 184 185 181 174 157 170 178 176 173 146 137 150 146 148 148 156 158 155 149 140 138 141 154 147 142 138 142 140 140 132 125
210 210 209 207 204 200 198 197 199 199 190 184 179 173 164 163 163 172 174 154 149 150 148 147 145 152 159 156 149 143 145 153 143 142 137 138 139 143 143 142 125 120
207 208 209 208 206 200 194 191 195 186 170 170 174 164 161 166 155 163 166 164 162 152 133 135 137 140 150 150 149 154 157 144 136 137 135 135 142 148 150 136 126 121
199 201 203 202 202 199 190 190 183 179 174 173 159 159 165 161 150 154 161 160 157 144 132 133 134 141 154 160 158 151 145 134 135 139 137 139 144 144 138 135 128 123
197 196 193 193 196 193 187 187 182 176 171 165 170 161 163 155 153 157 158 153 147 142 132 134 137 150 161 154 155 143 138 137 143 146 141 141 141 137 133 130 127 126
195 193 192 192 193 188 186 185 179 171 173 160 146 163 161 153 147 152 153 153 147 147 141 141 152 155 154 151 145 137 133 136 144 150 148 143 140 134 129 128 128 127
191 188 186 187 189 189 188 182 173 174 167 161 166 162 166 159 142 140 153 154 149 149 136 150 153 149 152 155 146 139 138 141 152 156 150 142 140 139 137 127 133 135
186 185 181 185 184 181 181 171 170 163 158 163 165 157 156 155 156 156 155 148 143 141 144 152 152 150 159 156 147 145 145 149 155 158 151 146 142 140 136 135 138 132
184 180 180 182 185 181 176 171 163 161 161 161 157 156 147 140 147 151 148 152 139 141 150 152 152 153 157 152 146 146 145 149 155 152 144 139 136 135 140 147 140 129
184 178 183 184 182 173 171 160 159 155 157 153 147 149 150 145 147 154 153 149 147 147 152 154 153 156 149 144 139 140 142 143 145 136 128 125 124 126 138 138 135 131
181 180 184 180 170 164 160 156 150 153 153 155 156 147 145 156 153 165 162 146 139 143 150 147 147 151 142 140 141 135 136 135 130 125 121 116 117 126 133 125 126 129
178 184 175 167 162 155 146 147 150 148 155 159 162 150 150 153 159 154 145 138 134 139 146 145 147 144 140 138 140 140 138 135 128 123 118 112 118 123 118 115 119 124
180 162 155 152 145 144 148 148 144 147 152 150 155 151 148 155 160 155 143 126 133 139 139 143 144 139 137 139 141 143 140 134 132 128 122 119 121 122 117 115 119 121
150 137 128 135 138 140 141 143 146 142 141 151 158 145 145 150 151 134 134 126 128 134 140 144 144 144 146 148 144 143 139 134 132 130 130 132 131 125 124 126 124 121
141 138 138 136 140 148 150 143 141 144 142 146 151 152 144 123 114 120 127 139 138 140 141 138 134 114 150 153 151 146 143 134 128 131 135 138 136 133 133 133 129 122
143 142 142 145 146 142 148 145 141 142 139 137 140 145 133 140 135 133 138 141 141 143 145 137 131 142 155 157 150 139 135 136 137 136 138 138 140 142 142 141 137 132
150 144 144 143 139 143 149 142 137 140 143 143 145 142 131 130 143 144 139 140 133 136 139 141 140 155 158 155 152 144 136 134 134 137 142 139 142 142 141 143 145 144
150 152 143 140 144 143 146 142 139 142 144 150 155 144 125 141 142 139 143 139 138 140 135 133 137 160 157 154 153 147 137 129 132 136 135 138 138 141 143 148 148 148
152 146 142 145 145 144 145 145 148 153 154 151 139 141 147 137 135 141 140 146 145 138 135 140 142 159 155 153 150 147 141 127 127 131 127 129 135 140 144 150 155 156
156 156 153 150 149 151 150 153 156 153 154 147 150 153 152 153 149 146 147 141 135 132 133 137 147 154 152 152 152 148 135 122 125 122 123 127 130 135 143 149 153 152
163 161 158 156 157 159 162 162 163 162 157 149 143 128 119 115 117 124 144 139 130 127 127 133 146 155 153 154 152 146 136 126 129 130 128 131 134 138 142 146 147 147
171 166 165 166 167 169 172 168 162 166 157 156 148 148 147 153 145 140 139 142 149 147 135 136 147 157 156 157 155 147 138 132 131 126 130 136 143 144 147 150 153 155
177 172 168 170 173 178 173 171 166 148 153 163 159 161 157 150 143 137 142 150 156 148 149 141 148 158 161 163 157 154 144 139 139 135 135 140 142 150 151 153 153 159
174 171 172 172 177 178 173 167 167 163 135 150 143 123 145 128 142 140 140 145 151 134 142 136 141 156 164 164 161 157 148 140 138 135 140 150 154 156 161 157 158 174
172 171 172 173 175 167 164 160 138 141 159 151 147 143 140 141 142 144 136 141 143 150 150 147 149 160 168 167 165 164 159 143 144 146 154 157 161 161 161 170 173 177